5. Juli 2020
  • Stand: 26.06.20 – 16.00 Uhr LT

    Betriebsstatus des Flugplatzes:
    Mo-Fr: Normaler Flugbetrieb
    Sa,Su,Hol: PPR am 27.+28.06 | 04.+05.07.
    _
    NOTAMs, Verfahren, Schutz- und Hygieneregelungen finden hier: [ Mehr… ]

Coffee-To-Fly

Serviceangebote

Airport Coffee-Lounge

Nutzen Sie unsere gemütliche Lounge zum Ausruhen und Entspannen vor Ihrem nächsten Flug. Wir bieten Ihnen dazu Kaffee, Tee und Soft-Drinks sowie Sweets im Self-Service für kleines Geld. In unserer Flugvorbereitungs-Corner können Sie sich informieren. Natürlich bieten wir Ihnen freies WLAN. [ Mehr… ]

Unsere Flugkraftstoffe

Verhalten am Flughafen

Unsere Onlineservices

Unsere Onlineservices

AirShampoo 2020 – Wir sind dabei!

Flugplatzwetter

METAR:

EDQM 051520Z 22015KT 200V260 9999 BKN026 BKN035 22/15 Q1015

Doppelnutzung

In Abstimmung mit dem Freistaat Bayern wird der Verkehrslandeplatz Hof-Plauen bis auf weiteres einer Doppelnutzung ab 01.09.2015 zugeführt.

Aufgrund der Parallelnutzung zum Test von Fahrerassistenzsystemen aus dem Bereich der Automobilentwicklung ergibt sich folgende Einschränkungen:

Taxiway „B“ zeitweise nicht nutzbar und Vorfeldbereich eingeschränkt berollbar!